Terminal Aerodrome Forecast
Issued by NWS Lake Charles, LA

Home | Current Version | Previous Version | Text Only | Print | Product List | Glossary On
Versions: 1 2 3 4 5 6 7 8 9 10 11 12 13 14 15 16
000
FTUS44 KLCH 210500
TAFAEX
TAF
KAEX 210520Z 2106/2206 17003KT P6SM SCT250
      TEMPO 2111/2114 4SM BR
     FM211800 17008KT P6SM VCTS SCT040CB SCT200
     FM220200 16003KT P6SM FEW250=

USA.gov is the U.S. government's official web portal to all federal, state and local government web resources and services.